Hourly Weather Roundup
Issued by NWS Central Illinois

Home | Current Version | Previous Version | Text Only | Print | Product List | Glossary On
Versions: 1 2 3 4 5 6 7 8 9 10 11 12 13 14 15 16 17 18 19 20 21 22 23 24 25 26 27 28 29 30 31 32 33 34 35 36 37 38 39 40 41 42 43 44 45 46 47 48 49 50
000
NZUS43 KILX 191610
HWRILX

AREA WEATHER ROUNDUP
NATIONAL WEATHER SERVICE, LINCOLN IL
1100 AM CDT SUN APR 19 2015


CITY           SKY/WX    TMP DP  RH WIND       PRES   REMARKS
BLOOMINGTON    CLOUDY    62  49  62 SE16      29.70F
CHAMPAIGN      LGT RAIN  57  51  80 E14       29.68F
DECATUR        RAIN      58  54  86 E14       29.67F FOG
EFFINGHAM      RAIN      58  55  88 NE6       29.64F
FLORA          RAIN      58  57  95 E8        29.61F
GALESBURG      MOSUNNY   69  51  51 E9        29.66F
JACKSONVILLE   LGT RAIN  66  53  61 E12       29.65S
LACON          PTSUNNY   65  45  47 SE8       29.69F
LAWRENCEVILLE  LGT RAIN  59  58  96 E9        29.63F FOG
LITCHFIELD     RAIN      57  55  90 NE6       29.64F
$$


CITY           SKY/WX    TMP DP  RH WIND       PRES   REMARKS
LINCOLN        LGT RAIN  63  50  63 E13       29.66F
MACOMB         MOSUNNY   70  51  49 SE7       29.67F
MATTOON        RAIN      57  56  96 E10       29.64F FOG
MT CARMEL AP   RAIN      61  59  94 E8        29.62F
OLNEY-NOBLE AP LGT RAIN  57  55  94 E9        29.62F
PARIS          LGT RAIN  57  55  92 E9        29.68F
PEORIA         PTSUNNY   65  48  54 E8        29.67F
PONTIAC        CLOUDY    68  45  43 E20       29.71F
RANTOUL        LGT RAIN  58  51  77 E12       29.70F
ROBINSON       HVY RAIN  58  57  97 E10       29.65F
SPRINGFIELD    LGT RAIN  62  54  74 E9        29.66F
TAYLORVILLE    RAIN      55  54  94 E5        29.65F
$$

...REGIONAL REPORTS...


CITY           SKY/WX    TMP DP  RH WIND       PRES   REMARKS
CHICAGO O`HARE PTSUNNY   64  36  35 E13       29.74F
KANKAKEE       PTSUNNY   65  44  44 SE15G21   29.73F
MOLINE         MOSUNNY   68  46  45 E9        29.68F
MOUNT VERNON   CLOUDY    59  54  82 NE3       29.61F
PITTSFIELD     CLOUDY    69  54  57 E3        29.64F
QUINCY         CLOUDY    69  52  54 SW3       29.63F
ROCKFORD       CLOUDY    70  41  34 SE15      29.73F
$$


CITY           SKY/WX    TMP DP  RH WIND       PRES   REMARKS
BURLINGTON     MOSUNNY   66  53  63 NE7       29.65F
CEDAR RAPIDS   CLOUDY    55  51  86 CALM      29.68F
DES MOINES     LGT RAIN  62  58  86 E3        29.67F
KIRKSVILLE     MOSUNNY   69  59  70 NE9       29.64F
OTTUMWA        CLOUDY    62  58  86 E9        29.66F
ST LOUIS       LGT RAIN  65  58  78 SE3       29.63F
$$


CITY           SKY/WX    TMP DP  RH WIND       PRES   REMARKS
TERRE HAUTE    RAIN      57  55  93 NE10      29.66F FOG
EVANSVILLE     RAIN      63  61  93 CALM      29.62F FOG
INDIANAPOLIS   RAIN      57  51  80 E17       29.69F
LAFAYETTE      LGT RAIN  58  46  64 E12       29.72F
MADISON        CLOUDY    65  37  35 SE14      29.75F
MILWAUKEE      PTSUNNY   51  33  50 E9        29.83F
$$




USA.gov is the U.S. government's official web portal to all federal, state and local government web resources and services.